User: anonymous   Login
Location: Homewood
(41.1836°S, 175.9581°E)
Time: 02:47:19
(UTC+00:00)
Language:

Cosmos 2278 Rocket - Orbit

View from above orbital plane
View from above orbital plane
View from above satellite
View from above satellite

Ground track
Ground track

The orbit data is extracted from the following two-line orbital elements,

1 23088U 94023B   24174.55838285 -.00000071  00000-0 -11860-4 0  9991
2 23088  71.0000 303.5817 0003634 203.3265 156.7693 14.14847359557667
Epoch (UTC): 22 June 2024 13:24:04
Eccentricity: 0.0003634
inclination: 71.0000°
perigee height: 840 km
apogee height: 845 km
right ascension of ascending node: 303.5817°
argument of perigee: 203.3265°
revolutions per day: 14.14847359
mean anomaly at epoch: 156.7693°
orbit number at epoch: 55766

The dashed part of the orbit path shows where the satellite is in the earth's shadow,  

DLR